Volver al catálogo

COSMOS 2599

ActivoMilitarPO
NORAD 66649·PAYLOAD·🇷🇺 Russia

Lanzado Nov 25, 2025 desde Plesetsk Cosmodrome

Loading…

Próximos Pases (próximas 24 horas)

TLE

ActualizadoSource: Space-Track

Época: Sep 14, 2026, 14:50 UTC

1 66649U 25273C   26257.61826313  .00000044  00000-0  24509-3 0  9993
2 66649  82.5003 115.0604 0016518  11.6746 348.4714 12.42899041 36408

Sigue COSMOS 2599 en tiempo real con AllMySat

Download on the App Store